Location: Unspecified
(50.7693°N, 0.0000°E)
Time: 17:35:48
(UTC+00:00)

A-11 Canister half - Pass Details

Date: 21 June 2019
Orbit: 1526 x 1683 km, 47.3° (Epoch: 22 August)

Event Time Altitude Azimuth Distance (km) Brightness Sun altitude
Rises 07:13:53 0° 259° (W) 4,710 11.0 29.2°
Reaches altitude 10° 07:16:57 10° 258° (WSW) 3,715 10.6 29.7°
Maximum altitude 07:26:14 73° 176° (S) 1,590 9.7 31.1°
Drops below altitude 10° 07:35:29 10° 95° (E) 3,705 12.5 32.6°
Sets 07:38:33 0° 93° (E) 4,698 12.6 33.1°
